contact:dominique.lefevre@mio.osupytheas.fr, maurice.libes@osupytheas.fr, didier.mallarino@osupytheas.fr
Project:EMSO http://www.emso-fr.org/EMSO-France
Depth: 2436.0 m
Title:EMSO Ligure Ouest : Data MII capteur AQUADOPP
Date,Latitude,Longitude,X_East,Y_North,Z_Up,Amplitude_X,Amplitude_Y,Amplitude_Z,Batterie,SoundSpeed,Heading,Pitch,Roll,Pressure,TIS,Speed,Direction
, degrees North, degrees East, m.s-1, m.s-1,m.s-1, 1, 1, 1, Volt, m.s-1, degree, degree, degree, dbar, degree_C, m.s-1, degree
2022-05-20T00:04:03,42.805,6.029,-0.035,0.014,-0.021,105.0,105.0,102.0,13.4,1505.2,322.5,-0.8,1.8,2471.052,13.28,0.037,291.8
2022-05-20T00:07:03,42.805,6.029,-0.027,0.019,-0.005,105.0,104.0,103.0,13.4,1505.2,322.2,-0.7,1.8,2471.023,13.28,0.033,305.1
2022-05-20T00:10:03,42.805,6.029,-0.065,0.011,-0.045,106.0,105.0,103.0,13.4,1505.2,329.1,-0.8,1.8,2471.024,13.28,0.065,279.6
2022-05-20T00:13:03,42.805,6.029,-0.035,0.022,-0.014,105.0,105.0,103.0,13.4,1505.2,325.2,-0.7,1.8,2471.019,13.28,0.041,302.2
2022-05-20T00:16:03,42.805,6.029,-0.043,0.004,-0.003,105.0,105.0,102.0,13.4,1505.2,325.1,-0.8,1.8,2471.017,13.28,0.043,275.3
2022-05-20T00:19:03,42.805,6.029,-0.03,0.034,-0.013,105.0,105.0,102.0,13.3,1505.2,329.4,-0.7,1.8,2470.999,13.28,0.045,318.6
2022-05-20T00:22:03,42.805,6.029,-0.064,-0.006,-0.017,104.0,105.0,103.0,13.4,1505.2,320.5,-0.8,1.8,2470.988,13.29,0.064,264.6
2022-05-20T00:25:03,42.805,6.029,-0.037,0.018,-0.015,106.0,104.0,103.0,13.4,1505.2,326.3,-0.7,1.8,2471.009,13.29,0.041,295.9
2022-05-20T00:28:03,42.805,6.029,-0.039,0.02,-0.057,105.0,105.0,103.0,13.4,1505.2,326.0,-0.8,1.8,2470.996,13.29,0.043,297.1
2022-05-20T00:31:03,42.805,6.029,-0.038,0.014,-0.012,105.0,106.0,102.0,13.4,1505.2,329.7,-0.8,1.8,2471.01,13.29,0.04,290.2
2022-05-20T00:34:03,42.805,6.029,-0.033,0.026,0.001,106.0,105.0,102.0,13.3,1505.2,329.5,-0.8,1.8,2470.978,13.29,0.042,308.2
2022-05-20T00:37:03,42.805,6.029,-0.055,0.015,-0.027,106.0,105.0,102.0,13.4,1505.2,328.7,-0.7,1.8,2471.007,13.29,0.057,285.3
2022-05-20T00:40:03,42.805,6.029,-0.053,0.026,-0.014,107.0,104.0,102.0,13.4,1505.2,328.4,-0.8,1.8,2470.988,13.29,0.059,296.1
2022-05-20T00:43:03,42.805,6.029,-0.04,0.024,-0.042,107.0,104.0,103.0,13.4,1505.2,329.9,-0.8,1.8,2471.011,13.29,0.046,301.0
2022-05-20T00:46:03,42.805,6.029,-0.044,0.02,-0.013,104.0,105.0,101.0,13.4,1505.2,333.4,-0.8,1.8,2471.021,13.29,0.048,294.4
2022-05-20T00:49:03,42.805,6.029,-0.042,0.025,-0.021,105.0,103.0,104.0,13.3,1505.2,332.6,-0.7,1.8,2470.965,13.29,0.048,300.8
2022-05-20T00:52:03,42.805,6.029,-0.027,0.019,-0.036,107.0,106.0,101.0,13.3,1505.2,324.5,-0.7,1.8,2470.95,13.29,0.033,305.1
2022-05-20T00:55:03,42.805,6.029,-0.068,0.014,-0.023,106.0,104.0,103.0,13.3,1505.2,326.0,-0.8,1.8,2470.937,13.29,0.069,281.6
2022-05-20T00:58:03,42.805,6.029,-0.027,0.012,-0.012,106.0,103.0,102.0,13.4,1505.2,330.9,-0.8,1.8,2470.977,13.29,0.029,294.0
2022-05-20T01:04:03,42.805,6.029,-0.048,0.015,0.005,108.0,105.0,105.0,13.4,1505.2,331.9,-0.7,1.8,2470.991,13.28,0.05,287.4
2022-05-20T01:07:03,42.805,6.029,-0.02,0.017,-0.001,106.0,108.0,103.0,13.3,1505.2,327.8,-0.7,1.8,2471.012,13.28,0.026,310.4
2022-05-20T01:10:03,42.805,6.029,-0.051,0.03,-0.024,103.0,105.0,104.0,13.4,1505.2,323.0,-0.8,1.8,2471.026,13.28,0.059,300.5
2022-05-20T01:13:03,42.805,6.029,-0.048,0.015,-0.057,105.0,106.0,102.0,13.4,1505.2,324.2,-0.7,1.8,2470.981,13.28,0.05,287.4
2022-05-20T01:16:03,42.805,6.029,-0.048,0.009,-0.021,106.0,104.0,103.0,13.3,1505.2,327.1,-0.7,1.8,2470.968,13.28,0.048,280.6
2022-05-20T01:19:03,42.805,6.029,-0.028,0.008,-0.011,106.0,105.0,104.0,13.3,1505.2,331.9,-0.8,1.8,2470.989,13.29,0.029,285.9
2022-05-20T01:22:03,42.805,6.029,-0.023,0.003,-0.027,106.0,105.0,103.0,13.4,1505.2,327.0,-0.7,1.8,2470.977,13.29,0.023,277.4
2022-05-20T01:25:03,42.805,6.029,-0.039,0.017,0.0,106.0,104.0,102.0,13.3,1505.2,326.9,-0.7,1.8,2470.975,13.29,0.042,293.5
2022-05-20T01:28:03,42.805,6.029,-0.044,0.018,0.003,107.0,105.0,104.0,13.4,1505.2,330.6,-0.7,1.8,2470.948,13.29,0.047,292.2
2022-05-20T01:31:03,42.805,6.029,-0.004,0.012,-0.021,106.0,107.0,102.0,13.3,1505.2,332.0,-0.8,1.8,2470.986,13.29,0.012,341.6
2022-05-20T01:34:03,42.805,6.029,-0.033,0.007,-0.022,106.0,106.0,103.0,13.4,1505.2,328.8,-0.7,1.8,2470.941,13.29,0.033,282.0
2022-05-20T01:37:03,42.805,6.029,-0.051,0.005,-0.02,104.0,104.0,105.0,13.4,1505.2,321.5,-0.7,1.8,2471.004,13.29,0.051,275.6
2022-05-20T01:40:03,42.805,6.029,-0.029,0.006,0.001,104.0,106.0,104.0,13.4,1505.2,332.0,-0.7,1.8,2470.962,13.29,0.029,281.7
2022-05-20T01:43:03,42.805,6.029,-0.059,0.015,-0.043,106.0,104.0,103.0,13.3,1505.2,328.6,-0.7,1.8,2470.953,13.29,0.06,284.3
2022-05-20T01:46:03,42.805,6.029,-0.038,0.0,-0.025,106.0,107.0,103.0,13.4,1505.2,322.1,-0.8,1.8,2470.972,13.29,0.038,270.0
2022-05-20T01:49:03,42.805,6.029,-0.046,0.016,-0.006,106.0,106.0,102.0,13.4,1505.2,327.9,-0.8,1.8,2470.974,13.29,0.048,289.2
2022-05-20T01:52:03,42.805,6.029,-0.032,-0.002,-0.043,105.0,105.0,104.0,13.4,1505.2,331.1,-0.8,1.8,2470.95,13.29,0.032,266.4
2022-05-20T01:55:03,42.805,6.029,-0.019,0.007,-0.015,105.0,105.0,103.0,13.4,1505.2,323.2,-0.8,1.8,2470.951,13.29,0.02,290.2
2022-05-20T01:58:03,42.805,6.029,-0.025,0.0,-0.027,106.0,106.0,103.0,13.3,1505.2,320.7,-0.8,1.8,2470.922,13.29,0.025,270.0
2022-05-20T02:04:03,42.805,6.029,-0.022,0.014,-0.005,105.0,105.0,105.0,13.4,1505.2,325.3,-0.7,1.8,2470.988,13.28,0.026,302.5
2022-05-20T02:07:03,42.805,6.029,-0.02,0.0,-0.035,106.0,105.0,103.0,13.4,1505.2,328.3,-0.7,1.8,2470.968,13.28,0.02,270.0
2022-05-20T02:10:03,42.805,6.029,-0.016,0.0,-0.006,105.0,105.0,104.0,13.4,1505.2,324.4,-0.7,1.8,2470.957,13.28,0.016,270.0
2022-05-20T02:13:03,42.805,6.029,-0.04,0.012,-0.051,105.0,105.0,104.0,13.4,1505.2,326.9,-0.7,1.8,2470.948,13.29,0.041,286.7
2022-05-20T02:16:03,42.805,6.029,-0.031,0.017,-0.007,105.0,105.0,103.0,13.3,1505.2,323.0,-0.7,1.8,2470.965,13.29,0.035,298.7
2022-05-20T02:19:03,42.805,6.029,-0.026,0.011,-0.018,106.0,105.0,102.0,13.3,1505.2,329.1,-0.8,1.9,2470.947,13.29,0.028,292.9
2022-05-20T02:22:03,42.805,6.029,-0.034,0.009,-0.023,106.0,106.0,103.0,13.3,1505.2,331.7,-0.7,1.8,2470.932,13.29,0.035,284.8
2022-05-20T02:25:03,42.805,6.029,-0.05,-0.003,-0.012,105.0,104.0,104.0,13.4,1505.2,321.7,-0.8,1.8,2470.982,13.29,0.05,266.6
2022-05-20T02:28:03,42.805,6.029,-0.052,0.039,-0.022,105.0,106.0,102.0,13.3,1505.2,325.9,-0.7,1.8,2470.983,13.29,0.064,306.9
2022-05-20T02:31:03,42.805,6.029,-0.038,-0.006,0.003,106.0,104.0,106.0,13.4,1505.2,325.2,-0.7,1.8,2470.924,13.29,0.038,261.0
2022-05-20T02:34:03,42.805,6.029,-0.038,0.01,-0.05,106.0,104.0,104.0,13.3,1505.2,324.4,-0.8,1.8,2470.923,13.29,0.039,284.7
2022-05-20T02:37:03,42.805,6.029,-0.067,0.029,-0.026,106.0,105.0,103.0,13.4,1505.2,323.9,-0.8,1.8,2470.937,13.29,0.073,293.4
2022-05-20T02:40:03,42.805,6.029,-0.046,0.023,0.026,105.0,104.0,103.0,13.4,1505.2,328.6,-0.7,1.8,2470.944,13.29,0.051,296.6
2022-05-20T02:43:03,42.805,6.029,-0.038,0.023,0.0,105.0,105.0,103.0,13.4,1505.2,333.0,-0.7,1.8,2470.902,13.29,0.044,301.2
2022-05-20T02:46:03,42.805,6.029,-0.043,0.016,-0.014,106.0,104.0,103.0,13.3,1505.2,332.5,-0.7,1.8,2470.915,13.29,0.045,290.4
2022-05-20T02:49:03,42.805,6.029,-0.04,0.019,0.001,107.0,105.0,103.0,13.4,1505.2,324.2,-0.7,1.8,2470.93,13.29,0.044,295.4
2022-05-20T02:52:03,42.805,6.029,-0.05,0.012,-0.004,105.0,105.0,103.0,13.4,1505.2,324.5,-0.8,1.8,2470.912,13.29,0.051,283.5
2022-05-20T02:55:03,42.805,6.029,-0.043,-0.022,-0.018,107.0,106.0,103.0,13.4,1505.2,322.6,-0.8,1.8,2470.894,13.29,0.048,242.9
2022-05-20T02:58:03,42.805,6.029,-0.05,0.018,-0.025,105.0,105.0,103.0,13.4,1505.2,327.7,-0.8,1.8,2470.908,13.29,0.053,289.8
2022-05-20T03:04:03,42.805,6.029,-0.041,0.013,-0.014,105.0,106.0,103.0,13.4,1505.2,326.4,-0.8,1.8,2470.938,13.28,0.043,287.6
2022-05-20T03:07:03,42.805,6.029,-0.04,0.017,-0.027,106.0,105.0,102.0,13.4,1505.2,325.4,-0.7,1.8,2470.911,13.28,0.043,293.0
2022-05-20T03:10:03,42.805,6.029,-0.022,0.003,-0.034,105.0,106.0,103.0,13.4,1505.2,323.4,-0.7,1.8,2470.964,13.28,0.022,277.8
2022-05-20T03:13:03,42.805,6.029,-0.027,-0.015,-0.006,107.0,105.0,103.0,13.4,1505.2,322.8,-0.8,1.8,2470.889,13.28,0.03,240.9
2022-05-20T03:16:03,42.805,6.029,-0.032,0.006,-0.002,107.0,105.0,102.0,13.4,1505.2,325.6,-0.8,1.8,2470.933,13.28,0.032,280.6
2022-05-20T03:19:03,42.805,6.029,-0.048,0.006,-0.015,107.0,105.0,103.0,13.4,1505.2,320.7,-0.8,1.8,2470.902,13.29,0.048,277.1
2022-05-20T03:22:03,42.805,6.029,-0.046,-0.013,-0.004,105.0,106.0,103.0,13.3,1505.2,325.1,-0.8,1.8,2470.93,13.29,0.047,254.2
2022-05-20T03:25:03,42.805,6.029,-0.03,0.002,-0.022,105.0,105.0,104.0,13.4,1505.2,328.2,-0.8,1.9,2470.915,13.29,0.03,273.8
2022-05-20T03:28:03,42.805,6.029,-0.021,0.016,-0.009,104.0,106.0,105.0,13.4,1505.2,322.5,-0.8,1.8,2470.897,13.29,0.026,307.3
2022-05-20T03:31:03,42.805,6.029,-0.025,-0.009,-0.028,104.0,106.0,102.0,13.4,1505.2,329.7,-0.7,1.8,2470.913,13.29,0.026,250.2
2022-05-20T03:34:03,42.805,6.029,-0.033,0.007,-0.022,106.0,104.0,104.0,13.3,1505.2,331.3,-0.7,1.8,2470.874,13.29,0.033,282.0
2022-05-20T03:37:03,42.805,6.029,-0.028,0.004,-0.039,105.0,106.0,103.0,13.4,1505.2,326.4,-0.8,1.8,2470.89,13.29,0.028,278.1
2022-05-20T03:40:03,42.805,6.029,-0.041,-0.016,-0.034,107.0,104.0,103.0,13.4,1505.2,322.7,-0.8,1.8,2470.901,13.29,0.044,248.7
2022-05-20T03:43:03,42.805,6.029,-0.027,0.013,0.01,107.0,106.0,103.0,13.3,1505.2,331.3,-0.8,1.8,2470.896,13.29,0.029,295.7
2022-05-20T03:46:03,42.805,6.029,-0.048,0.033,0.005,105.0,105.0,104.0,13.4,1505.2,327.8,-0.8,1.8,2470.878,13.29,0.058,304.5
2022-05-20T03:49:03,42.805,6.029,-0.031,0.005,-0.03,105.0,105.0,102.0,13.4,1505.2,331.3,-0.8,1.8,2470.877,13.29,0.031,279.2
2022-05-20T03:52:03,42.805,6.029,-0.037,-0.011,-0.03,105.0,105.0,103.0,13.3,1505.2,324.0,-0.8,1.8,2470.903,13.29,0.038,253.4
2022-05-20T03:55:03,42.805,6.029,-0.051,0.021,-0.027,106.0,105.0,102.0,13.4,1505.2,323.9,-0.8,1.8,2470.867,13.29,0.055,292.4
2022-05-20T03:58:03,42.805,6.029,-0.043,0.017,-0.021,105.0,104.0,104.0,13.4,1505.2,331.3,-0.8,1.8,2470.878,13.29,0.046,291.6
2022-05-20T04:04:03,42.805,6.029,-0.041,0.012,-0.019,105.0,105.0,102.0,13.4,1505.2,327.4,-0.8,1.8,2470.898,13.28,0.042,286.3
2022-05-20T04:07:03,42.805,6.029,-0.047,0.002,-0.03,106.0,103.0,102.0,13.3,1505.2,325.9,-0.8,1.8,2470.863,13.28,0.047,272.4
2022-05-20T04:10:03,42.805,6.029,-0.046,-0.001,-0.031,105.0,103.0,103.0,13.4,1505.2,322.5,-0.8,1.9,2470.93,13.28,0.046,268.8
2022-05-20T04:13:03,42.805,6.029,-0.034,0.029,-0.009,105.0,104.0,103.0,13.4,1505.2,329.1,-0.8,1.8,2470.882,13.29,0.044,310.5
2022-05-20T04:16:03,42.805,6.029,-0.026,0.024,-0.007,105.0,106.0,102.0,13.3,1505.2,327.2,-0.7,1.8,2470.872,13.29,0.035,312.7
2022-05-20T04:19:03,42.805,6.029,-0.049,0.011,-0.027,106.0,104.0,103.0,13.4,1505.2,325.4,-0.8,1.8,2470.864,13.29,0.05,282.7
2022-05-20T04:22:03,42.805,6.029,-0.021,0.01,-0.04,106.0,105.0,103.0,13.3,1505.2,329.1,-0.8,1.8,2470.895,13.29,0.023,295.5
2022-05-20T04:25:03,42.805,6.029,-0.04,0.005,-0.04,105.0,104.0,103.0,13.4,1505.2,324.1,-0.7,1.8,2470.883,13.29,0.04,277.1
2022-05-20T04:28:03,42.805,6.029,-0.051,0.015,-0.024,105.0,106.0,103.0,13.3,1505.2,328.4,-0.8,1.9,2470.879,13.29,0.053,286.4
2022-05-20T04:31:03,42.805,6.029,-0.058,0.014,-0.038,105.0,105.0,104.0,13.3,1505.2,326.0,-0.7,1.8,2470.91,13.29,0.059,283.6
2022-05-20T04:34:03,42.805,6.029,-0.036,0.012,-0.038,106.0,105.0,102.0,13.4,1505.2,332.4,-0.8,1.9,2470.878,13.29,0.037,288.4
2022-05-20T04:37:03,42.805,6.029,-0.04,-0.007,-0.023,105.0,105.0,103.0,13.3,1505.2,326.5,-0.8,1.9,2470.869,13.29,0.04,260.1
2022-05-20T04:40:03,42.805,6.029,-0.04,0.018,0.011,105.0,109.0,102.0,13.4,1505.2,325.1,-0.7,1.8,2470.872,13.29,0.043,294.2
2022-05-20T04:43:03,42.805,6.029,-0.036,-0.001,-0.056,105.0,104.0,104.0,13.4,1505.2,324.9,-0.8,1.8,2470.872,13.29,0.036,268.4
2022-05-20T04:46:03,42.805,6.029,-0.037,0.007,-0.036,105.0,105.0,103.0,13.4,1505.2,326.5,-0.8,1.8,2470.911,13.29,0.037,280.7
2022-05-20T04:49:03,42.805,6.029,-0.018,0.008,-0.022,107.0,106.0,103.0,13.4,1505.2,324.9,-0.8,1.8,2470.861,13.29,0.019,294.0
2022-05-20T04:52:03,42.805,6.029,-0.061,0.0,-0.019,105.0,104.0,104.0,13.3,1505.2,329.5,-0.8,1.8,2470.865,13.29,0.06,270.0
2022-05-20T04:55:03,42.805,6.029,-0.028,0.014,-0.022,105.0,104.0,104.0,13.3,1505.2,330.1,-0.7,1.8,2470.885,13.29,0.031,296.6
2022-05-20T04:58:03,42.805,6.029,-0.052,0.017,-0.032,105.0,105.0,104.0,13.4,1505.2,329.8,-0.7,1.8,2470.878,13.29,0.054,288.1
2022-05-20T05:04:03,42.805,6.029,-0.031,0.0,-0.003,104.0,105.0,103.0,13.4,1505.2,329.3,-0.8,1.8,2470.848,13.28,0.03,270.0
2022-05-20T05:07:03,42.805,6.029,-0.038,0.004,-0.029,106.0,104.0,102.0,13.3,1505.2,322.4,-0.8,1.8,2470.857,13.28,0.038,276.0
2022-05-20T05:10:03,42.805,6.029,-0.035,0.016,-0.015,107.0,103.0,104.0,13.3,1505.2,324.8,-0.8,1.9,2470.865,13.28,0.038,294.6
2022-05-20T05:13:03,42.805,6.029,-0.016,0.0,0.005,106.0,106.0,102.0,13.4,1505.2,332.8,-0.8,1.8,2470.891,13.29,0.016,270.0
2022-05-20T05:16:03,42.805,6.029,-0.046,0.015,-0.023,104.0,106.0,103.0,13.3,1505.2,322.8,-0.8,1.8,2470.879,13.29,0.048,288.1
2022-05-20T05:19:03,42.805,6.029,-0.034,0.006,-0.035,106.0,105.0,104.0,13.4,1505.2,327.5,-0.7,1.8,2470.864,13.29,0.034,280.0
2022-05-20T05:22:03,42.805,6.029,-0.025,0.013,-0.025,105.0,104.0,103.0,13.4,1505.2,329.5,-0.8,1.8,2470.841,13.29,0.028,297.5
2022-05-20T05:25:03,42.805,6.029,-0.006,0.007,-0.01,105.0,107.0,104.0,13.4,1505.2,332.1,-0.8,1.8,2470.885,13.29,0.009,319.4
2022-05-20T05:28:03,42.805,6.029,-0.037,0.02,-0.017,106.0,105.0,102.0,13.4,1505.2,329.1,-0.7,1.8,2470.87,13.29,0.042,298.4
2022-05-20T05:31:03,42.805,6.029,-0.019,0.007,-0.004,105.0,103.0,103.0,13.3,1505.2,329.2,-0.8,1.8,2470.868,13.29,0.02,290.2
2022-05-20T05:34:03,42.805,6.029,-0.035,0.029,-0.006,106.0,105.0,103.0,13.4,1505.2,325.9,-0.8,1.8,2470.844,13.29,0.045,309.6
2022-05-20T05:37:03,42.805,6.029,-0.055,0.023,-0.01,105.0,104.0,103.0,13.4,1505.2,330.3,-0.8,1.8,2470.862,13.29,0.059,292.7
2022-05-20T05:40:03,42.805,6.029,-0.035,0.024,-0.026,106.0,104.0,103.0,13.3,1505.2,325.5,-0.7,1.8,2470.862,13.29,0.042,304.4
2022-05-20T05:43:03,42.805,6.029,-0.027,0.006,-0.03,106.0,106.0,103.0,13.4,1505.2,330.6,-0.8,1.8,2470.882,13.29,0.027,282.5
2022-05-20T05:46:03,42.805,6.029,-0.036,0.012,-0.001,104.0,104.0,102.0,13.4,1505.2,321.9,-0.8,1.8,2470.848,13.29,0.037,288.4
2022-05-20T05:49:03,42.805,6.029,-0.03,0.013,-0.046,105.0,105.0,103.0,13.4,1505.2,322.8,-0.8,1.8,2470.873,13.29,0.032,293.4
2022-05-20T05:52:03,42.805,6.029,-0.019,0.026,-0.021,105.0,105.0,103.0,13.4,1505.2,328.0,-0.7,1.9,2470.906,13.29,0.032,323.8
2022-05-20T05:55:03,42.805,6.029,-0.024,0.027,-0.002,105.0,105.0,103.0,13.4,1505.2,331.2,-0.7,1.8,2470.846,13.29,0.036,318.4
2022-05-20T05:58:03,42.805,6.029,-0.056,-0.008,-0.016,106.0,106.0,103.0,13.4,1505.2,324.8,-0.8,1.8,2470.882,13.29,0.056,261.9
2022-05-20T06:04:03,42.805,6.029,-0.029,0.007,-0.04,104.0,104.0,103.0,13.4,1505.2,324.0,-0.7,1.8,2470.895,13.28,0.029,283.6
2022-05-20T06:07:03,42.805,6.029,-0.048,0.027,-0.016,106.0,105.0,104.0,13.3,1505.2,330.9,-0.8,1.8,2470.851,13.28,0.055,299.4
2022-05-20T06:10:03,42.805,6.029,-0.024,-0.008,0.004,104.0,107.0,103.0,13.4,1505.2,322.5,-0.8,1.8,2470.862,13.28,0.025,251.6
2022-05-20T06:13:03,42.805,6.029,-0.022,0.003,-0.024,105.0,105.0,103.0,13.3,1505.2,329.5,-0.8,1.8,2470.904,13.28,0.022,277.8
2022-05-20T06:16:03,42.805,6.029,-0.029,0.015,-0.018,105.0,105.0,102.0,13.3,1505.2,328.7,-0.7,1.8,2470.901,13.29,0.032,297.4
2022-05-20T06:19:03,42.805,6.029,-0.031,0.009,-0.027,106.0,104.0,103.0,13.4,1505.2,329.7,-0.8,1.8,2470.834,13.29,0.032,286.2
2022-05-20T06:22:03,42.805,6.029,-0.02,0.015,-0.001,105.0,105.0,102.0,13.4,1505.2,328.8,-0.7,1.8,2470.888,13.29,0.025,306.9
2022-05-20T06:25:03,42.805,6.029,-0.034,0.035,0.035,106.0,103.0,103.0,13.4,1505.2,327.9,-0.8,1.9,2470.844,13.29,0.048,315.8
2022-05-20T06:28:03,42.805,6.029,-0.03,0.008,-0.021,106.0,104.0,102.0,13.4,1505.2,324.6,-0.7,1.8,2470.842,13.29,0.031,284.9
2022-05-20T06:31:03,42.805,6.029,-0.012,0.005,-0.038,107.0,107.0,103.0,13.4,1505.2,328.5,-0.7,1.8,2470.86,13.29,0.013,292.6
2022-05-20T06:34:03,42.805,6.029,-0.027,-0.002,-0.054,104.0,106.0,105.0,13.4,1505.2,324.3,-0.7,1.8,2470.858,13.29,0.027,265.8
2022-05-20T06:37:03,42.805,6.029,-0.041,0.012,-0.009,105.0,105.0,102.0,13.4,1505.2,329.6,-0.8,1.8,2470.884,13.29,0.042,286.3
2022-05-20T06:40:03,42.805,6.029,-0.037,0.013,-0.007,105.0,104.0,103.0,13.4,1505.2,327.4,-0.8,1.8,2470.852,13.29,0.039,289.4
2022-05-20T06:43:03,42.805,6.029,-0.018,0.004,-0.031,107.0,104.0,102.0,13.4,1505.2,332.1,-0.8,1.8,2470.89,13.29,0.018,282.5
2022-05-20T06:46:03,42.805,6.029,-0.015,0.012,-0.029,105.0,104.0,104.0,13.4,1505.2,327.5,-0.8,1.8,2470.901,13.29,0.019,308.7
2022-05-20T06:49:03,42.805,6.029,-0.006,-0.007,-0.029,105.0,107.0,103.0,13.4,1505.2,330.7,-0.8,1.8,2470.906,13.29,0.009,220.6
2022-05-20T06:52:03,42.805,6.029,-0.04,0.013,-0.024,106.0,103.0,102.0,13.4,1505.2,324.5,-0.8,1.8,2470.867,13.29,0.042,288.0
2022-05-20T06:55:03,42.805,6.029,-0.039,-0.004,-0.024,105.0,105.0,103.0,13.4,1505.2,328.1,-0.8,1.8,2470.861,13.29,0.039,264.1
2022-05-20T06:58:03,42.805,6.029,-0.032,-0.001,-0.04,104.0,105.0,103.0,13.4,1505.2,323.3,-0.7,1.8,2470.897,13.29,0.032,268.2
2022-05-20T07:04:03,42.805,6.029,-0.033,0.013,-0.004,105.0,103.0,103.0,13.4,1505.2,324.5,-0.8,1.8,2470.921,13.28,0.035,291.5
2022-05-20T07:07:03,42.805,6.029,-0.03,0.01,-0.029,104.0,106.0,103.0,13.4,1505.2,327.4,-0.8,1.8,2470.884,13.28,0.031,288.4
2022-05-20T07:10:03,42.805,6.029,-0.011,0.011,0.022,105.0,105.0,104.0,13.4,1505.2,332.2,-0.8,1.8,2470.906,13.28,0.015,315.0
2022-05-20T07:13:03,42.805,6.029,-0.026,0.004,-0.041,105.0,104.0,103.0,13.4,1505.2,328.4,-0.7,1.8,2470.912,13.29,0.026,278.7
2022-05-20T07:16:03,42.805,6.029,-0.05,0.01,-0.029,107.0,106.0,102.0,13.4,1505.2,327.8,-0.8,1.8,2470.921,13.29,0.05,281.3
2022-05-20T07:19:03,42.805,6.029,-0.023,0.022,0.008,104.0,104.0,103.0,13.3,1505.2,332.0,-0.7,1.8,2470.914,13.29,0.031,313.7
2022-05-20T07:22:03,42.805,6.029,-0.052,-0.009,-0.048,104.0,104.0,103.0,13.4,1505.2,322.5,-0.7,1.8,2470.938,13.29,0.052,260.2
2022-05-20T07:25:03,42.805,6.029,-0.017,-0.007,-0.017,106.0,105.0,103.0,13.4,1505.2,326.4,-0.7,1.8,2470.928,13.29,0.018,247.6
2022-05-20T07:28:03,42.805,6.029,-0.036,-0.001,-0.012,104.0,106.0,102.0,13.3,1505.2,324.5,-0.8,1.8,2470.901,13.29,0.036,268.4
2022-05-20T07:31:03,42.805,6.029,-0.038,0.02,-0.019,105.0,105.0,106.0,13.3,1505.2,320.8,-0.8,1.8,2470.879,13.29,0.042,297.8
2022-05-20T07:34:03,42.805,6.029,-0.043,0.014,-0.002,105.0,104.0,104.0,13.4,1505.2,327.2,-0.7,1.8,2470.933,13.29,0.045,288.0
2022-05-20T07:37:03,42.805,6.029,-0.047,-0.013,-0.04,104.0,104.0,102.0,13.4,1505.2,323.7,-0.8,1.8,2470.889,13.29,0.048,254.5
2022-05-20T07:40:03,42.805,6.029,-0.016,0.004,-0.001,105.0,105.0,102.0,13.4,1505.2,324.9,-0.7,1.8,2470.875,13.29,0.016,284.0
2022-05-20T07:43:03,42.805,6.029,-0.018,0.018,-0.016,105.0,106.0,102.0,13.3,1505.2,328.0,-0.7,1.8,2470.887,13.29,0.025,315.0
2022-05-20T07:46:03,42.805,6.029,-0.017,0.015,-0.024,105.0,107.0,102.0,13.4,1505.2,331.6,-0.8,1.8,2470.946,13.29,0.022,311.4
2022-05-20T07:49:03,42.805,6.029,-0.034,0.011,0.0,104.0,105.0,101.0,13.4,1505.2,328.2,-0.8,1.8,2470.922,13.29,0.035,287.9
2022-05-20T07:52:03,42.805,6.029,-0.019,-0.003,-0.013,106.0,104.0,104.0,13.4,1505.2,323.9,-0.8,1.9,2470.921,13.29,0.019,261.0
2022-05-20T07:55:03,42.805,6.029,-0.037,0.002,0.018,107.0,104.0,103.0,13.4,1505.2,327.5,-0.8,1.9,2470.898,13.29,0.037,273.1
2022-05-20T07:58:03,42.805,6.029,-0.046,0.02,-0.017,105.0,106.0,103.0,13.3,1505.2,325.0,-0.8,1.8,2470.923,13.29,0.05,293.5
2022-05-20T08:04:03,42.805,6.029,-0.031,-0.001,-0.008,105.0,104.0,104.0,13.3,1505.2,328.4,-0.7,1.8,2470.95,13.28,0.031,268.2
2022-05-20T08:07:03,42.805,6.029,-0.046,-0.007,-0.06,105.0,104.0,103.0,13.4,1505.2,323.3,-0.7,1.8,2470.9,13.28,0.046,261.3
2022-05-20T08:10:03,42.805,6.029,-0.032,0.01,-0.012,104.0,108.0,103.0,13.4,1505.2,325.8,-0.7,1.9,2470.957,13.28,0.033,287.4
2022-05-20T08:13:03,42.805,6.029,-0.031,0.002,-0.01,106.0,105.0,103.0,13.4,1505.2,325.9,-0.8,1.8,2470.934,13.29,0.031,273.7
2022-05-20T08:16:03,42.805,6.029,-0.032,0.003,-0.019,104.0,105.0,104.0,13.3,1505.2,329.1,-0.7,1.8,2470.918,13.29,0.032,275.4
2022-05-20T08:19:03,42.805,6.029,-0.039,-0.006,-0.035,106.0,105.0,102.0,13.3,1505.2,331.5,-0.8,1.8,2470.931,13.29,0.039,261.3
2022-05-20T08:22:03,42.805,6.029,-0.052,0.024,-0.025,105.0,105.0,102.0,13.3,1505.2,324.7,-0.8,1.9,2470.96,13.29,0.057,294.8
2022-05-20T08:25:03,42.805,6.029,-0.048,-0.006,-0.008,106.0,105.0,103.0,13.4,1505.2,322.2,-0.8,1.8,2470.943,13.29,0.048,262.9
2022-05-20T08:28:03,42.805,6.029,-0.036,0.0,0.006,105.0,104.0,103.0,13.4,1505.2,326.5,-0.7,1.8,2470.931,13.29,0.036,270.0
2022-05-20T08:31:03,42.805,6.029,-0.033,0.02,0.011,105.0,105.0,102.0,13.4,1505.2,328.3,-0.7,1.8,2470.927,13.29,0.038,301.2
2022-05-20T08:34:03,42.805,6.029,-0.05,0.023,-0.017,106.0,106.0,103.0,13.3,1505.2,321.6,-0.8,1.8,2470.938,13.29,0.055,294.7
2022-05-20T08:37:03,42.805,6.029,-0.028,0.003,-0.029,106.0,104.0,104.0,13.4,1505.2,325.2,-0.8,1.8,2470.925,13.29,0.028,276.1
2022-05-20T08:40:03,42.805,6.029,-0.05,0.006,-0.036,105.0,104.0,103.0,13.4,1505.2,326.8,-0.8,1.8,2470.983,13.29,0.05,276.8
2022-05-20T08:43:03,42.805,6.029,-0.038,0.002,-0.014,106.0,105.0,103.0,13.4,1505.2,331.5,-0.8,1.8,2470.895,13.29,0.038,273.0
2022-05-20T08:46:03,42.805,6.029,-0.037,-0.004,-0.037,105.0,104.0,103.0,13.4,1505.2,330.8,-0.8,1.9,2470.931,13.29,0.037,263.8
2022-05-20T08:49:03,42.805,6.029,-0.031,0.013,-0.006,104.0,104.0,103.0,13.4,1505.2,332.3,-0.7,1.8,2470.935,13.29,0.033,292.7
2022-05-20T08:52:03,42.805,6.029,-0.007,0.014,-0.029,106.0,104.0,102.0,13.3,1505.2,326.9,-0.8,1.8,2470.938,13.29,0.015,333.4
2022-05-20T08:55:03,42.805,6.029,-0.037,0.019,-0.023,106.0,105.0,102.0,13.4,1505.2,332.8,-0.8,1.8,2470.922,13.29,0.041,297.2
2022-05-20T08:58:03,42.805,6.029,-0.012,0.0,-0.03,106.0,105.0,102.0,13.4,1505.2,327.4,-0.7,1.8,2470.912,13.29,0.012,270.0
2022-05-20T09:04:03,42.805,6.029,-0.042,0.001,-0.037,106.0,105.0,102.0,13.4,1505.2,328.0,-0.8,1.8,2470.964,13.28,0.042,271.4
2022-05-20T09:07:03,42.805,6.029,-0.019,0.007,-0.059,106.0,105.0,102.0,13.3,1505.2,333.2,-0.7,1.8,2470.948,13.28,0.02,290.2
2022-05-20T09:10:03,42.805,6.029,-0.049,-0.001,-0.019,106.0,104.0,104.0,13.4,1505.2,322.1,-0.8,1.8,2470.956,13.28,0.049,268.8
2022-05-20T09:13:03,42.805,6.029,-0.037,0.001,-0.011,106.0,105.0,103.0,13.4,1505.2,323.3,-0.8,1.8,2470.943,13.28,0.037,271.5
2022-05-20T09:16:03,42.805,6.029,-0.015,-0.003,-0.004,107.0,104.0,102.0,13.4,1505.2,332.0,-0.8,1.8,2470.959,13.29,0.015,258.7
2022-05-20T09:19:03,42.805,6.029,-0.025,0.0,-0.013,106.0,105.0,101.0,13.4,1505.2,329.7,-0.8,1.8,2470.932,13.29,0.025,270.0
2022-05-20T09:22:03,42.805,6.029,-0.022,0.021,-0.026,106.0,105.0,102.0,13.4,1505.2,328.2,-0.7,1.8,2470.971,13.29,0.03,313.7
2022-05-20T09:25:03,42.805,6.029,-0.038,0.006,-0.02,105.0,104.0,104.0,13.3,1505.2,331.3,-0.7,1.8,2470.944,13.29,0.038,279.0
2022-05-20T09:28:03,42.805,6.029,-0.044,-0.004,-0.037,104.0,104.0,102.0,13.4,1505.2,326.6,-0.7,1.8,2470.97,13.29,0.044,264.8
2022-05-20T09:31:03,42.805,6.029,-0.015,0.0,-0.003,105.0,104.0,101.0,13.4,1505.2,328.9,-0.7,1.8,2470.932,13.29,0.015,270.0
2022-05-20T09:34:03,42.805,6.029,-0.042,0.004,-0.008,103.0,104.0,103.0,13.4,1505.2,321.0,-0.8,1.8,2470.96,13.29,0.042,275.4
2022-05-20T09:37:03,42.805,6.029,-0.031,0.003,-0.014,104.0,105.0,102.0,13.4,1505.2,330.6,-0.8,1.8,2470.925,13.29,0.031,275.5
2022-05-20T09:40:03,42.805,6.029,-0.04,-0.009,-0.013,105.0,104.0,104.0,13.4,1505.2,325.9,-0.7,1.8,2470.917,13.29,0.041,257.3
2022-05-20T09:43:03,42.805,6.029,-0.048,0.014,-0.018,105.0,105.0,102.0,13.4,1505.2,333.4,-0.8,1.9,2470.934,13.29,0.05,286.3
2022-05-20T09:46:03,42.805,6.029,-0.034,0.009,-0.034,105.0,104.0,103.0,13.4,1505.2,329.8,-0.8,1.8,2470.936,13.29,0.035,284.8
2022-05-20T09:49:03,42.805,6.029,-0.024,0.013,-0.003,106.0,105.0,102.0,13.4,1505.2,330.4,-0.7,1.8,2470.917,13.29,0.027,298.4
2022-05-20T09:52:03,42.805,6.029,-0.033,0.015,-0.045,105.0,105.0,102.0,13.4,1505.2,326.4,-0.8,1.9,2470.897,13.29,0.036,294.4